Location: Oshawa
(43.9000°N, 78.8670°W)
Time: 05:13:29
(UTC-05:00)

Altair - Visible Passes

Search period start: 24 February 2018 00:00
Search period end: 06 March 2018 00:00
Orbit: 1501 x 1682 km, 47.2° (Epoch: 23 February)

Date Brightness Start Highest point End Pass type
(mag) Time Alt. Az. Time Alt. Az. Time Alt. Az.
24 Feb 9.4 05:48:55 10° S 05:56:17 27° SE 06:03:51 10° ENE visible
25 Feb 9.4 05:24:15 10° S 05:31:16 24° SE 05:38:27 10° E visible
26 Feb 9.4 04:59:39 10° S 05:06:15 22° SE 05:12:59 10° E visible
27 Feb 9.5 04:35:07 10° SSE 04:41:15 20° SE 04:47:29 10° E visible
28 Feb 9.5 04:10:42 10° SSE 04:16:15 18° SE 04:21:54 10° E visible
28 Feb 8.2 06:10:15 10° SW 06:19:18 57° SE 06:28:43 10° ENE visible
01 Mar 9.5 03:46:23 10° SSE 03:51:15 15° ESE 03:56:12 10° E visible
01 Mar 8.2 05:45:15 10° SW 05:54:12 54° SE 06:03:29 10° ENE visible
02 Mar 9.5 03:22:16 10° SSE 03:26:17 14° ESE 03:30:20 10° E visible
02 Mar 8.2 05:20:18 10° SSW 05:29:06 50° SE 05:38:15 10° ENE visible
03 Mar 9.5 02:58:28 10° SE 03:01:18 12° ESE 03:04:09 10° ESE visible
03 Mar 8.2 04:55:34 11° SSW 05:04:02 46° SE 05:13:00 10° ENE visible
04 Mar 8.3 04:32:19 17° SSW 04:38:57 43° SE 04:47:45 10° ENE visible
05 Mar 8.3 04:08:56 23° S 04:13:54 40° SE 04:22:29 10° ENE visible
05 Mar 7.6 06:08:34 10° WSW 06:17:56 88° SSE 06:27:43 10° ENE visible
